Location: Mapua
(41.2500°S, 173.1000°E)
Time: 09:38:25
(UTC+13:00)

Mayak - Visible Passes

Search period start: 24 November 2017 00:00
Search period end: 04 December 2017 00:00
Orbit: 584 x 605 km, 97.6° (Epoch: 23 November)

Date Brightness Start Highest point End Pass type
(mag) Time Alt. Az. Time Alt. Az. Time Alt. Az.
24 Nov -0.6 00:15:22 56° S 00:15:22 56° S 00:18:49 10° S visible
25 Nov -0.6 00:24:56 55° SSW 00:24:56 55° SSW 00:28:20 10° SSW visible
25 Nov 1.1 22:57:51 12° ESE 22:58:30 12° ESE 23:00:15 10° SE visible
26 Nov -0.4 00:34:29 48° SW 00:34:29 48° SW 00:37:49 10° SSW visible
26 Nov 0.9 23:07:25 15° ESE 23:07:54 15° ESE 23:10:25 10° SSE visible
27 Nov -0.2 00:44:03 40° WSW 00:44:03 40° WSW 00:47:15 10° SSW visible
27 Nov 0.6 23:16:58 19° ESE 23:17:19 19° ESE 23:20:20 10° SSE visible
28 Nov 0.1 00:53:36 33° WSW 00:53:36 33° WSW 00:56:39 10° SSW visible
28 Nov 0.3 23:26:31 24° ESE 23:26:44 24° ESE 23:30:09 10° SSE visible
29 Nov 0.4 01:03:10 27° WSW 01:03:10 27° WSW 01:05:58 10° SW visible
29 Nov 0.0 23:36:04 29° ESE 23:36:10 29° ESE 23:39:53 10° S visible
30 Nov 0.7 01:12:43 21° WSW 01:12:43 21° WSW 01:15:13 10° SW visible
30 Nov -0.3 23:45:38 37° ESE 23:45:38 37° ESE 23:49:33 10° S visible
01 Dec 1.0 01:22:16 17° WSW 01:22:16 17° WSW 01:24:21 10° SW visible
01 Dec -0.6 23:55:11 47° ESE 23:55:11 47° ESE 23:59:11 10° S visible
02 Dec 1.2 01:31:49 14° WSW 01:31:49 14° WSW 01:33:20 10° WSW visible
03 Dec -0.9 00:04:44 60° ESE 00:04:44 60° ESE 00:08:46 10° S visible
03 Dec 1.4 01:41:22 11° WSW 01:41:22 11° WSW 01:41:53 10° WSW visible
